Regional Weather Roundup
Issued by NWS

Home | Current Version | Previous Version | Text Only | Print | Product List | Glossary On
Versions: 1 2 3 4 5 6 7 8 9 10 11 12 13 14 15 16 17 18 19 20 21 22 23 24 25 26 27 28 29 30 31 32 33 34 35 36 37 38 39 40 41 42 43 44 45 46 47 48 49 50
000
ASUS43 KMPX 280010
RWRMN
WEATHER ROUNDUP FOR MINNESOTA
NATIONAL WEATHER SERVICE TWIN CITIES/CHANHASSEN MN
600 PM CST FRI FEB 27 2015


NOTE: "FAIR" INDICATES FEW OR NO CLOUDS BELOW 12,000 FEET WITH NO
SIGNIFICANT WEATHER AND/OR OBSTRUCTIONS TO VISIBILITY. N/A MEANS
CURRENT SKY AND/OR WEATHER CONDITIONS ARE NOT AVAILABLE.

MNZ060>063-068>070-280100-
   Twin Cities Metro

CITY           SKY/WX    TMP DP  RH WIND       PRES   REMARKS
TWIN CITIES    CLEAR     12  -2  53 SW7       30.50S WCI   1
6HR MIN TEMP:  11; 6HR MAX TEMP:  15;

ST PAUL        CLEAR     12  -1  56 SW7       30.52S WCI   1
CRYSTAL        CLEAR     13   0  56 SW9       30.48F WCI   1
BLAINE         CLEAR     16   1  53 SW6       30.48  WCI   7
LAKEVILLE      CLEAR      7  -2  66 SW2       30.51R
EDEN PRAIRIE   CLEAR     10  -2  58 S8        30.49S WCI  -2
6HR MIN TEMP:  10; 6HR MAX TEMP:  15;

SOUTH ST PAUL  CLEAR     13  -1  53 SW8       30.51R WCI   2
LAKE ELMO      FAIR      12   1  62 S10       30.50R WCI  -1
$$
MNZ001>005-007-008-013>017-022>024-027-028-280100-
   Northwest Minnesota

CITY           SKY/WX    TMP DP  RH WIND       PRES   REMARKS
BEMIDJI        CLEAR     13  -4  45 W6        30.33S WCI   4
HALLOCK        PTCLDY    12   3  67 S9        30.32F WCI   0
ROSEAU         CLEAR     10   1  67 SW7       30.32S WCI   0
WARROAD        CLEAR     10  -2  56 SW6       30.31F WCI   1
THIEF RVR FALL CLEAR     10   1  67 S9        30.34F WCI  -2
CROOKSTON      CLEAR     12   3  67 SW10      30.38S WCI  -1
FOSSTON        CLEAR     10   1  67 SW6       30.36S WCI   1
DETROIT LAKES  CLEAR     14   0  52 SW7       30.37F WCI   4
MOORHEAD       CLEAR     16  -4  41 S8        30.40F WCI   5
PARK RAPIDS    CLEAR     11  -3  53 SW9       30.35S WCI  -2
MAHNOMEN       FAIR      13   2  62 SW9       30.36S WCI   0
$$
MNZ006-009>011-018-025>026-280100-
   North Central Minnesota

CITY           SKY/WX    TMP DP  RH WIND       PRES   REMARKS
BAUDETTE       CLEAR     13  -8  39 SW9       30.29S WCI   1
FLAG ISLAND    CLEAR     10   0  61 SW12      30.27S WCI  -4
INTL FALLS     CLEAR     14  -8  37 SW9       30.30S WCI   2
6HR MIN TEMP:  12; 6HR MAX TEMP:  19;

WASKISH        CLEAR     10  -4  52 CALM      30.34S
BIG FORK       CLEAR     16  -9  32 W3        30.32S
LONGVILLE      CLEAR     14  -9  34 SW6       30.36S WCI   5
GRAND RAPIDS   CLEAR     18  -8  32 SW6       30.33S WCI   9
CRANE LAKE     PTCLDY    16 -15  24 SW3       30.32S
ORR            CLEAR     16 -15  24 CALM      30.28S
COOK           CLEAR     16  -9  32 SW7       30.31S WCI   6
WALKER         FAIR      15  -7  37 SW6       30.34S WCI   6
$$
MNZ012-019>021-037-280100-
   Northeast Minnesota

CITY           SKY/WX    TMP DP  RH WIND       PRES   REMARKS
DULUTH         CLEAR     16  -6  37 SW10      30.34S WCI   4
6HR MIN TEMP:  12; 6HR MAX TEMP:  18;

ELY            CLEAR     16  -9  32 SW6       30.29S WCI   7
HIBBING        CLEAR     16 -11  29 W6        30.32F WCI   7
EVELETH        CLEAR     18  -8  32 W5        30.33S WCI  11
DULUTH HARBOR  CLEAR     18  -6  35 SW10      30.42S WCI   6
TWO HARBORS    CLEAR     19  -2  38 SW8       30.34S WCI   9
SILVER BAY     CLEAR     18  -9  29 CALM      30.33R
GRAND MARAIS     N/A     21  11  65 SW25      30.34R WCI   4
G MARAIS ARPRT CLEAR     10 -15  31 W3        30.26R
$$
MNZ029>031-032-039>041-046>048-054>057-064-280100-
   West Central Minnesota

CITY           SKY/WX    TMP DP  RH WIND       PRES   REMARKS
FERGUS FALLS   CLEAR     12   0  57 S8        30.44F WCI   1
WHEATON        CLEAR     10   0  61 S6        30.44F WCI   1
MORRIS         CLEAR     10   0  61 S7        30.43S WCI   0
ALEXANDRIA     CLEAR     10  -3  55 SW8       30.41S WCI  -2
ELBOW LAKE     FAIR       9   0  66 S8        30.41F WCI  -3
WADENA         CLEAR      9  -2  61 SW5       30.39S WCI   0
GLENWOOD       CLEAR      9  -2  61 SW6       30.43S WCI  -1
APPLETON       CLEAR     14   0  52 CALM      30.45S
BENSON         CLEAR     12   0  57 SW3       30.45S
ORTONVILLE     CLEAR     12   0  57 S6        30.43S WCI   3
MADISON        CLEAR     14   3  62 SW6       30.45S WCI   5
WILLMAR        FAIR      12   1  62 CALM      30.46F
$$
MNZ033>034-036-042>043-049>051-058-059-280100-
   Central Minnesota

CITY           SKY/WX    TMP DP  RH WIND       PRES   REMARKS
ST CLOUD       CLEAR     14  -2  49 SW12      30.45S WCI   0
6HR MIN TEMP:  11; 6HR MAX TEMP:  17;

SAUK CENTRE    FAIR      12  -3  52 SW7       30.43S WCI   1
PAYNESVILLE    CLEAR      9  -3  58 S6        30.45S WCI  -1
AITKIN         CLEAR     18  -9  29 SW5       30.37S WCI  11
PINE RIVER     CLEAR     14  -4  44 SW3       30.40S
BRAINERD       CLEAR     13  -7  40 SW9       30.39S WCI   1
STAPLES        CLEAR      9  -6  52 W5        30.40S WCI   0
LONG PRAIRIE   FAIR      12  -4  48 SW5       30.41S WCI   4
LITTLE FALLS   CLEAR     14  -8  37 SW6       30.43R WCI   5
LITCHFIELD     CLEAR      9   0  66 CALM      30.47S
BUFFALO        CLEAR     12  -2  52 SW6       30.49S WCI   3
MAPLE LAKE     CLEAR     12   0  58 SW6       30.48S WCI   3
$$
MNZ037-044-045-052-053-280100-
   East Central Minnesota

CITY           SKY/WX    TMP DP  RH WIND       PRES   REMARKS
PRINCETON      CLEAR     16  -2  45 S6        30.45S WCI   7
MORA           CLEAR     14  -4  44 SW6       30.45S WCI   5
CAMBRIDGE      CLEAR     16   1  53 S5        30.45R WCI   9
RUSH CITY      CLEAR     14  -1  52 SW7       30.46S WCI   4
MOOSE LAKE     CLEAR     16  -6  38 CALM      30.39R
HINCKLEY       FAIR      14   0  52 SW6       30.43S WCI   5
CLOQUET        CLEAR     16 -11  29 SW7       30.37R WCI   6
MCGREGOR       CLEAR     14  -2  48 S7        30.39S WCI   4
$$
MNZ071>073-080-081-089-090-097-098-280100-
   Southwest Minnesota

CITY           SKY/WX    TMP DP  RH WIND       PRES   REMARKS
MONTEVIDEO     CLEAR     14   1  57 SW6       30.46F WCI   5
GRANITE FALLS  CLEAR     11   2  67 S7        30.48S WCI   0
CANBY          CLEAR     13  -1  52 S3        30.44F
MARSHALL       CLEAR     12   0  57 S7        30.46S WCI   2
REDWOOD FALLS  CLEAR     12   2  64 S7        30.47F WCI   1
OLIVIA         CLEAR     14   5  67 S6        30.46F WCI   5
PIPESTONE      CLEAR      9   1  72 S7        30.40F WCI  -3
WINDOM         CLEAR     10   1  67 S6        30.46S WCI   1
WORTHINGTON    CLEAR     21  -4  33 S6        30.46F WCI  14
JACKSON        CLEAR     10   1  67 SW5       30.46F WCI   2
TRACY          CLEAR     12   1  62 SW6       30.45S WCI   3
SLAYTON        CLEAR     10   0  64 CALM      30.43S
$$
MNZ065>067-074>077-082>085-091>093-280100-
   South Central Minnesota

CITY           SKY/WX    TMP DP  RH WIND       PRES   REMARKS
MANKATO        CLEAR      9  -6  52 S6        30.50S WCI  -1
NEW ULM        CLEAR     10   0  61 S6        30.49S WCI   1
ST JAMES       CLEAR     10   1  67 S8        30.51S WCI  -1
FAIRMONT       CLEAR     10   0  61 S6        30.48F WCI   1
GLENCOE        CLEAR     10   3  72 S6        30.49S WCI   1
FARIBAULT      CLEAR      9  -2  61 S6        30.51S WCI  -1
OWATONNA       CLEAR      5  -2  72 S6        30.50S WCI  -6
WASECA         CLEAR      7  -2  66 S6        30.52S WCI  -3
ALBERT LEA     CLEAR      7   0  72 S5        30.50S WCI  -2
$$
MNZ078>079-086>088-094>096-280100-
   Southeast Minnesota

CITY           SKY/WX    TMP DP  RH WIND       PRES   REMARKS
ROCHESTER      CLEAR      0  -6  76 S8        30.50S WCI -14
6HR MIN TEMP:   0; 6HR MAX TEMP:   7;

RED WING       CLEAR     10  -2  56 SW8       30.53R WCI  -1
STANTON        CLEAR      9  -1  62 SW8       30.51R WCI  -3
DODGE CENTER   PTCLDY     3  -2  78 SW6       30.49S WCI  -8
WINONA         CLEAR     12   0  57 SW6       30.57R WCI   3
AUSTIN         CLEAR      3  -4  72 SW5       30.51S WCI  -6
PRESTON        CLEAR      2  -5  70 SW5       30.51F WCI  -7
$$
ABBREVIATIONS USED IN REMARKS
   TC - TEMPERATURES IN CELSIUS
  WCI - WIND CHILL INDEX
   HX - HEAT INDEX
  VSB - VISIBILITY
$$


USA.gov is the U.S. government's official web portal to all federal, state and local government web resources and services.